Regional Weather Roundup
Issued by NWS

Home | Current Version | Previous Version | Text Only | Print | Product List | Glossary On
Versions: 1 2 3 4 5 6 7 8 9 10 11 12 13 14 15 16 17 18 19 20 21 22 23 24 25 26 27 28 29 30 31 32 33 34 35 36 37 38 39 40 41 42 43 44 45 46 47 48 49 50
000
ASUS43 KOAX 021802
RWRNE

WEATHER ROUNDUP FOR NEBRASKA
NATIONAL WEATHER SERVICE OMAHA NE
100 PM CDT THU OCT 02 2014

NOTES: SATELLITE DATA IS BEING USED TO AUGMENT CLOUD COVER ABOVE
       12000 FEET.
       "FAIR" INDICATES FEW OR NO CLOUDS BELOW 12,000 FEET WITH NO
       SIGNIFICANT WEATHER AND/OR OBSTRUCTIONS TO VISIBILITY.

  * THESE STATIONS DO NOT REPORT WEATHER SUCH AS RAIN...SNOW OR FOG.

NEZ001>004-019>022-054>056-021900-
NEBRASKA PANHANDLE

CITY           SKY/WX    TMP DP  RH WIND       PRES   REMARKS
SCOTTSBLUFF    SUNNY     60  35  39 W15G22    30.03F
6HR MIN TEMP:  37; 6HR MAX TEMP:  61;

ALLIANCE       SUNNY     59  36  42 W12       30.01F
6HR MIN TEMP:  34; 6HR MAX TEMP:  59;

CHADRON        SUNNY     61  37  41 NW10G20   29.99F
6HR MIN TEMP:  38; 6HR MAX TEMP:  61;

KIMBALL        SUNNY     57  31  36 NW17G28   30.05F
SIDNEY         SUNNY     59  35  40 W14       30.06F
6HR MIN TEMP:  40; 6HR MAX TEMP:  60;

$$

NEZ057>060-069>072-079>082-021900-
SOUTHWEST NEBRASKA

CITY           SKY/WX    TMP DP  RH WIND       PRES   REMARKS
NORTH PLATTE   SUNNY     63  40  42 NW16G23   29.99F
6HR MIN TEMP:  47; 6HR MAX TEMP:  63;

IMPERIAL       MOSUNNY   60  41  49 NW20G26   30.03F
6HR MIN TEMP:  46; 6HR MAX TEMP:  60;

LEXINGTON      SUNNY     63  44  50 N16G23    29.96S
MCCOOK         MOSUNNY   65  41  41 NW22      29.99F
6HR MIN TEMP:  50; 6HR MAX TEMP:  65;

OGALLALA       SUNNY     62  42  48 NW13      30.03F
$$

NEZ005>010-023>029-035>040-094-021900-
NORTH CENTRAL NEBRASKA

CITY           SKY/WX    TMP DP  RH WIND       PRES   REMARKS
VALENTINE      SUNNY     64  34  32 N13       29.95F
6HR MIN TEMP:  44; 6HR MAX TEMP:  65;

AINSWORTH      SUNNY     62  36  38 NW13G21   29.95F
BROKEN BOW     SUNNY     64  44  48 N17G26    29.94F
6HR MIN TEMP:  52; 6HR MAX TEMP:  64;

O`NEILL        MOSUNNY   64  47  54 NW17G23   29.91F
ORD            MOSUNNY   64  44  48 N16G24    29.91F
6HR MIN TEMP:  51; 6HR MAX TEMP:  64;

THEDFORD       SUNNY     64  39  40 N13G20    29.98F
$$

NEZ041-046>049-061>064-073>077-083>087-021900-
SOUTH CENTRAL NEBRASKA

CITY           SKY/WX    TMP DP  RH WIND       PRES   REMARKS
GRAND ISLAND   CLOUDY    60  49  66 NW17      29.92F
6HR MIN TEMP:  53; 6HR MAX TEMP:  62; 6HR PCP: TRACE;

AURORA         CLOUDY    59  51  75 N13G20    29.91F
HASTINGS       CLOUDY    59  48  67 N18G25    29.91F
6HR MIN TEMP:  53; 6HR MAX TEMP:  59; 6HR PCP:  0.08;

HEBRON         CLOUDY    59  53  80 N10       29.87F
HOLDREGE       PTSUNNY   61  46  58 N13G21    29.94F
KEARNEY *      CLOUDY    61  48  63 NW15      29.94S
YORK           CLOUDY    57  54  88 N14G20    29.89F
$$

NEZ011>018-030>034-042>045-021900-
NORTHEAST NEBRASKA

CITY           SKY/WX    TMP DP  RH WIND       PRES   REMARKS
NORFOLK        CLOUDY    59  51  75 N20       29.88S
6HR MIN TEMP:  54; 6HR MAX TEMP:  60; 6HR PCP:  0.02;

ALBION         PTSUNNY   60  51  69 N12G20    29.90F
BLAIR          CLOUDY    58  54  86 N13G26    29.82R
COLUMBUS *     CLOUDY    57  50  77 N12G23    29.90R
FREMONT        CLOUDY    57  54  88 NW16      29.87R
TEKAMAH        CLOUDY    59  54  83 N18G24    29.82F
6HR MIN TEMP:  56; 6HR MAX TEMP:  59; 6HR PCP:  0.15;

WAYNE          CLOUDY    56  53  91 N12       29.88S
$$

NEZ050>053-065>068-078-088>093-021900-
SOUTHEAST NEBRASKA

CITY           SKY/WX    TMP DP  RH WIND       PRES   REMARKS
LINCOLN        CLOUDY    58  53  84 N16       29.87R
6HR MIN TEMP:  56; 6HR MAX TEMP:  59; 6HR PCP:  0.05;

OMAHA EPPLEY   LGT RAIN  59  54  83 N20       29.81R
6HR MIN TEMP:  58; 6HR MAX TEMP:  64; 6HR PCP: TRACE;

BEATRICE       LGT RAIN  57  55  93 N12       29.84F
FALLS CITY     CLOUDY    64  61  90 N10       29.77F
6HR MIN TEMP:  61; 6HR MAX TEMP:  67; 6HR PCP:  0.41;

NEBRASKA CITY  LGT RAIN  59  59 100 NW9       29.81R
PLATTSMOUTH    LGT RAIN  58  55  88 NW14G21   29.79R
$$

NEZ044-045-051>053-067-021900-
OMAHA AREA

CITY           SKY/WX    TMP DP  RH WIND       PRES   REMARKS
OMAHA EPPLEY   LGT RAIN  59  54  83 N20       29.81R
6HR MIN TEMP:  58; 6HR MAX TEMP:  64; 6HR PCP: TRACE;

BLAIR          CLOUDY    58  54  86 N13G26    29.82R
FREMONT        CLOUDY    57  54  88 NW16      29.87R
MILLARD        LGT RAIN  59  55  85 NW13G25   29.83R
OFFUTT AFB     LGT RAIN  59  59  99 NW14G21   29.80R
PLATTSMOUTH    LGT RAIN  58  55  88 NW14G21   29.79R
WAHOO          LGT RAIN  57  52  82 NW13G22   29.86R
$$



USA.gov is the U.S. government's official web portal to all federal, state and local government web resources and services.